TimeIST,TemperatureF,Dew PointF,Humidity,Sea Level PressureIn,VisibilityMPH,Wind Direction,Wind SpeedMPH,Gust SpeedMPH,PrecipitationIn,Events,Conditions,WindDirDegrees,DateUTC
12:00 AM,51.8,50.0,94,29.95,5.6,ENE,9.2,-,N/A,,Overcast,70,2012-10-08 23:00:00
12:30 AM,51.8,50.0,94,29.95,5.6,ENE,11.5,-,N/A,,Overcast,70,2012-10-08 23:30:00
1:00 AM,51,50,96,29.97,6,ENE,11.2,,,,Mist,60,2012-10-09 00:00:00
1:00 AM,51.8,50.0,94,29.95,5.6,ENE,10.4,-,N/A,,Overcast,60,2012-10-09 00:00:00
1:30 AM,51.8,50.0,94,29.95,5.0,NE,9.2,-,N/A,,Overcast,50,2012-10-09 00:30:00
2:00 AM,51.8,50.0,94,29.95,2.5,ENE,12.7,-,N/A,,Light Drizzle,60,2012-10-09 01:00:00
2:30 AM,50.0,50.0,100,29.95,2.5,ENE,12.7,-,N/A,,Light Drizzle,70,2012-10-09 01:30:00
3:00 AM,50.0,50.0,100,29.95,3.1,ENE,11.5,-,N/A,,Overcast,60,2012-10-09 02:00:00
3:30 AM,51.8,50.0,94,29.95,5.0,ENE,11.5,-,N/A,,Overcast,60,2012-10-09 02:30:00
4:00 AM,51.8,48.2,88,29.95,5.0,ENE,10.4,-,N/A,,Overcast,60,2012-10-09 03:00:00
4:30 AM,51.8,48.2,88,29.95,5.6,ENE,10.4,-,N/A,,Overcast,60,2012-10-09 03:30:00
5:00 AM,51.8,48.2,88,29.92,5.6,ENE,9.2,-,N/A,,Overcast,60,2012-10-09 04:00:00
5:30 AM,50.0,48.2,94,29.92,5.6,ENE,9.2,-,N/A,,Mostly Cloudy,60,2012-10-09 04:30:00
6:00 AM,51.8,48.2,88,29.92,6.2,ENE,10.4,-,N/A,,Overcast,60,2012-10-09 05:00:00
6:30 AM,50.0,48.2,94,29.92,6.2,ENE,8.1,-,N/A,,Overcast,60,2012-10-09 05:30:00
7:00 AM,51,49,90,29.95,9,ENE,11.2,,,,Mist,60,2012-10-09 06:00:00
7:00 AM,51.8,48.2,88,29.92,6.2,ENE,10.4,-,N/A,,Overcast,60,2012-10-09 06:00:00
7:30 AM,51.8,50.0,94,29.92,6.2,ENE,10.4,-,N/A,,Overcast,70,2012-10-09 06:30:00
8:00 AM,51.8,50.0,94,29.92,6.2,ENE,11.5,-,N/A,,Overcast,60,2012-10-09 07:00:00
8:30 AM,51.8,50.0,94,29.95,6.2,ENE,10.4,-,N/A,,Overcast,60,2012-10-09 07:30:00
9:00 AM,51.8,50.0,94,29.95,5.6,NE,11.5,-,N/A,,Light Drizzle,50,2012-10-09 08:00:00
9:30 AM,51.8,50.0,94,29.95,5.6,NE,11.5,-,N/A,,Light Drizzle,50,2012-10-09 08:30:00
10:00 AM,51.8,50.0,94,29.95,5.6,ENE,12.7,-,N/A,,Light Drizzle,60,2012-10-09 09:00:00
10:30 AM,51.8,51.8,100,29.95,5.0,ENE,12.7,-,N/A,,Overcast,70,2012-10-09 09:30:00
11:00 AM,51.8,51.8,100,29.95,3.7,ENE,9.2,-,N/A,,Mostly Cloudy,70,2012-10-09 10:00:00
11:30 AM,51.8,51.8,100,29.95,3.7,East,10.4,-,N/A,,Overcast,80,2012-10-09 10:30:00
12:00 PM,53.6,51.8,94,29.95,1.9,East,10.4,-,N/A,,Light Drizzle,80,2012-10-09 11:00:00
12:30 PM,51.8,51.8,100,29.95,1.0,East,10.4,-,N/A,,Light Drizzle,80,2012-10-09 11:30:00
1:00 PM,51.8,51.8,100,29.95,0.9,ENE,10.4,-,N/A,,Light Drizzle,70,2012-10-09 12:00:00
1:30 PM,53.6,53.6,100,29.95,1.1,ENE,11.5,-,N/A,,Light Drizzle,70,2012-10-09 12:30:00
2:00 PM,53.6,53.6,100,29.95,1.1,ENE,10.4,-,N/A,,Light Drizzle,70,2012-10-09 13:00:00
2:30 PM,53.6,53.6,100,29.95,1.1,ENE,11.5,-,N/A,,Light Drizzle,70,2012-10-09 13:30:00
3:00 PM,53.6,53.6,100,29.95,1.1,ENE,12.7,-,N/A,,Light Drizzle,70,2012-10-09 14:00:00
3:30 PM,53.6,53.6,100,29.95,1.0,ENE,11.5,-,N/A,,Light Drizzle,70,2012-10-09 14:30:00
4:00 PM,53.6,53.6,100,29.95,0.7,ENE,13.8,-,N/A,,Light Drizzle,70,2012-10-09 15:00:00
4:30 PM,53.6,53.6,100,29.95,0.9,East,12.7,-,N/A,,Light Drizzle,80,2012-10-09 15:30:00
5:00 PM,53.6,53.6,100,29.95,1.6,East,12.7,-,N/A,,Light Drizzle,90,2012-10-09 16:00:00
5:30 PM,53.6,53.6,100,29.95,2.5,ENE,12.7,-,N/A,,Light Drizzle,70,2012-10-09 16:30:00
6:00 PM,53.6,53.6,100,29.95,3.7,East,11.5,-,N/A,,Overcast,80,2012-10-09 17:00:00
6:30 PM,53.6,53.6,100,29.95,3.7,East,12.7,-,N/A,,Overcast,80,2012-10-09 17:30:00
7:00 PM,53,53,98,29.97,4,ENE,11.2,,,,Mist,70,2012-10-09 18:00:00
7:00 PM,51.8,51.8,100,29.95,3.7,ENE,11.5,-,N/A,,Overcast,70,2012-10-09 18:00:00
7:30 PM,51.8,51.8,100,29.95,3.7,East,10.4,-,N/A,,Overcast,90,2012-10-09 18:30:00
8:00 PM,51.8,51.8,100,29.95,3.7,ENE,10.4,-,N/A,,Mostly Cloudy,70,2012-10-09 19:00:00
8:30 PM,51.8,51.8,100,29.98,2.8,ENE,11.5,-,N/A,,Mostly Cloudy,60,2012-10-09 19:30:00
9:00 PM,51.8,51.8,100,29.95,2.8,East,10.4,-,N/A,,Mostly Cloudy,80,2012-10-09 20:00:00
9:30 PM,51.8,51.8,100,29.95,2.8,East,9.2,-,N/A,,Mostly Cloudy,90,2012-10-09 20:30:00
10:00 PM,51.8,51.8,100,29.95,1.6,East,10.4,-,N/A,,Mostly Cloudy,80,2012-10-09 21:00:00
10:30 PM,51.8,51.8,100,29.95,1.9,East,10.4,-,N/A,,Mostly Cloudy,80,2012-10-09 21:30:00
11:00 PM,51.8,51.8,100,29.95,2.2,East,10.4,-,N/A,,Mostly Cloudy,80,2012-10-09 22:00:00
11:30 PM,51.8,51.8,100,29.95,2.2,ENE,9.2,-,N/A,,Mostly Cloudy,70,2012-10-09 22:30:00